If you wish to contribute or participate in the discussions about articles you are invited to join SKYbrary as a registered user

 Actions

Angelholm Helsingborg Airport

From SKYbrary Wiki

ESTA
Airport
ICAO: ESTA
Summary
Name Angelholm Helsingborg Airport
Region Europe
Territory Sweden SE.gif
Location Angelholm, Sweden
Serving
Coordinates 56° 17' 27.9996", 12° 51' 18"
Runways
Designator Length Width Surface ROPS
4/22 1997 m6,551.837 ft 40 m131.234 ft ASP /
14/32 1945 m6,381.234 ft 40 m131.234 ft ASP yes/yes


METAR
Observation ESTA 252020Z 27014KT 9999 FEW027 OVC048 12/07 Q1031
Station ANGELHOLM (SWE-A
Date/Time 25 September 2018 20:20:00
Wind direction 270°
Wind speed 14 kts
Lowest cloud amount few clouds
Temperature 12°C
Dew point 7°C
Humidity 71%
QNH 1031 hPa
Weather condition n/a

Angelholm-Helsingborg Airport

ICAO: ESTA IATA: AGH

Description

Airport serving towns of Angelholm and Helsingborg, southwest Sweden.

Climatology

Temperate Marine climate/Oceanic climate (Köppen climate classification Cfb). Moderately cool summer and comparatively warm winter.

Maps

Terrain

Loading map...

Airport Layout

Loading map...


Accidents & Serious Incidents at or in vicinity of ESTA

None on SKYbrary